Location: The Stocker AstroScience Center
(25.7579°N, 80.3725°W)
Time: 14:24:40
(UTC-04:00)

ISS - All Passes

Search period start: 23 September 2017 00:00
Search period end: 03 October 2017 00:00
Orbit: 401 x 407 km, 51.6° (Epoch: 24 September)

Date Brightness Start Highest point End Pass type
(mag) Time Alt. Az. Time Alt. Az. Time Alt. Az.
23 Sep - 05:00:27 10° NNW 05:03:24 30° NE 05:06:21 10° ESE visible
23 Sep - 06:38:07 10° W 06:39:37 13° SW 06:41:07 10° SSW visible
23 Sep - 19:57:46 10° SSW 20:00:52 44° SE 20:03:59 10° NE visible
23 Sep - 21:36:29 10° WNW 21:37:29 11° NW 21:38:29 10° NNW visible
24 Sep - 04:08:59 10° N 04:11:00 15° NE 04:13:00 10° ENE night (unlit)
24 Sep - 05:44:34 10° WNW 05:47:28 29° SW 05:50:21 10° S visible
24 Sep - 19:06:22 10° S 19:08:41 18° SE 19:11:01 10° E daylight
24 Sep - 20:42:26 10° W 20:45:01 21° NW 20:47:37 10° N visible
25 Sep - 04:51:58 10° NW 04:55:15 77° SW 04:58:31 10° SE night (unlit)
25 Sep - 19:49:29 10° WSW 19:52:38 48° NW 19:55:49 10° NNE visible
26 Sep - 03:59:49 10° NNW 04:02:57 41° NE 04:06:04 10° ESE night (unlit)
26 Sep - 18:57:08 10° SSW 19:00:20 63° SE 19:03:33 10° NE daylight
27 Sep - 03:08:06 10° N 03:10:32 19° NE 03:12:58 10° E night (unlit)
27 Sep - 04:44:19 10° WNW 04:46:53 22° SW 04:49:29 10° S night (unlit)
27 Sep - 18:05:24 10° S 18:08:06 24° SE 18:10:49 10° ENE daylight
27 Sep - 19:42:17 10° W 19:44:31 17° NW 19:46:45 10° N visible
28 Sep - 03:51:28 10° NW 03:54:40 54° SW 03:57:52 10° SSE night (unlit)
28 Sep - 17:15:16 10° SE 17:15:55 10° SE 17:16:33 10° ESE daylight
28 Sep - 18:49:03 10° WSW 18:52:04 35° NW 18:55:06 10° NNE daylight
29 Sep - 02:59:07 10° NNW 03:02:21 56° NE 03:05:34 10° SE night (unlit)
29 Sep - 17:56:28 10° SW 17:59:42 88° SE 18:02:57 10° NE daylight
30 Sep - 02:07:11 10° NNW 02:09:56 24° NE 02:12:40 10° E night (unlit)
30 Sep - 03:44:05 10° W 03:46:13 16° SW 03:48:21 10° SSW night (unlit)
30 Sep - 17:04:27 10° SSW 17:07:24 33° SE 17:10:22 10° ENE daylight
30 Sep - 18:42:12 10° WNW 18:43:55 14° NW 18:45:39 10° N daylight
01 Oct - 01:15:58 10° NNE 01:17:24 12° NE 01:18:50 10° ENE night (unlit)
01 Oct - 02:50:53 10° WNW 02:53:58 38° SW 02:57:02 10° SSE night (unlit)
01 Oct - 16:13:23 10° SSE 16:15:10 14° SE 16:16:57 10° E daylight
01 Oct - 17:48:34 10° WSW 17:51:23 27° NW 17:54:14 10° NNE daylight
02 Oct - 01:58:21 10° NW 02:01:38 79° NE 02:04:54 10° SE night (unlit)
02 Oct - 16:55:44 10° SW 16:58:57 66° NW 17:02:11 10° NE daylight
